Voltar ao catálogo

RASSVET-3 12

AtivoCiênciaPO
NORAD 68371·PAYLOAD·🇷🇺 Russia

Lançado Mar 23, 2026 de Plesetsk Cosmodrome

Loading…

Próximas Passagens (próximas 24 horas)

TLE

AtualizadoSource: Space-Track

Época: Sep 13, 2026, 13:56 UTC

1 68371U 26061M   26256.58089458  .00002988  00000-0  14383-3 0  9997
2 68371  82.2914 284.5629 0003126  87.0581 273.1010 15.18413437 26829

Acompanhe RASSVET-3 12 em tempo real com AllMySat

Download on the App Store